Year,Month,Day,Hour,Minute,Value (Times are PST for windgust in km/hr)
2021,08,07,00,33,6.40
2021,08,07,00,34,1.60
2021,08,07,00,57,6.40
2021,08,07,00,58,4.80
2021,08,07,00,59,8.10
2021,08,07,01,00,4.80
2021,08,07,01,01,6.40
2021,08,07,01,02,4.80
2021,08,07,01,03,4.80
2021,08,07,01,05,6.40
2021,08,07,01,06,1.60
2021,08,07,01,08,3.20
2021,08,07,01,11,4.80
2021,08,07,01,12,4.80
2021,08,07,01,13,4.80
2021,08,07,01,14,3.20
2021,08,07,01,15,4.80
2021,08,07,01,16,3.20
2021,08,07,01,19,4.80
2021,08,07,01,20,4.80
2021,08,07,01,21,6.40
2021,08,07,01,22,4.80
2021,08,07,01,23,4.80
2021,08,07,01,24,6.40
2021,08,07,01,25,6.40
2021,08,07,01,26,3.20
2021,08,07,01,27,3.20
2021,08,07,03,05,1.60
2021,08,07,03,06,1.60
2021,08,07,05,05,3.20
2021,08,07,07,05,4.80
2021,08,07,07,06,4.80
2021,08,07,07,47,4.80
2021,08,07,07,49,4.80
2021,08,07,08,07,4.80
2021,08,07,08,23,1.60
2021,08,07,08,24,4.80
2021,08,07,08,28,8.10
2021,08,07,08,29,4.80
2021,08,07,10,17,3.20
2021,08,07,10,18,3.20
2021,08,07,10,30,4.80
2021,08,07,10,31,6.40
2021,08,07,10,32,8.10
2021,08,07,10,33,3.20
2021,08,07,10,37,3.20
2021,08,07,10,38,8.10
2021,08,07,10,39,3.20
2021,08,07,10,41,6.40
2021,08,07,11,46,8.10
2021,08,07,11,47,4.80
2021,08,07,11,48,3.20
2021,08,07,11,59,4.80
2021,08,07,12,00,1.60
2021,08,07,12,07,6.40
2021,08,07,12,08,8.10
2021,08,07,12,09,3.20
2021,08,07,12,10,4.80
2021,08,07,12,45,8.10
2021,08,07,12,46,3.20
2021,08,07,12,52,3.20
2021,08,07,12,53,3.20
2021,08,07,13,00,3.20
2021,08,07,13,07,3.20
2021,08,07,13,09,6.40
2021,08,07,13,10,3.20
2021,08,07,13,14,4.80
2021,08,07,13,17,9.60
2021,08,07,13,18,8.10
2021,08,07,13,19,6.40
2021,08,07,13,22,11.30
2021,08,07,13,23,11.30
2021,08,07,13,24,1.60
2021,08,07,13,25,8.10
2021,08,07,13,26,6.40
2021,08,07,13,28,6.40
2021,08,07,13,29,12.90
2021,08,07,13,30,4.80
2021,08,07,13,31,3.20
2021,08,07,13,34,8.10
2021,08,07,13,35,8.10
2021,08,07,13,36,4.80
2021,08,07,13,37,11.30
2021,08,07,13,38,3.20
2021,08,07,13,39,12.90
2021,08,07,13,40,3.20
2021,08,07,13,42,6.40
2021,08,07,13,43,3.20
2021,08,07,13,44,6.40
2021,08,07,13,45,12.90
2021,08,07,13,46,6.40
2021,08,07,13,47,3.20
2021,08,07,13,48,6.40
2021,08,07,13,49,3.20
2021,08,07,13,50,4.80
2021,08,07,13,51,4.80
2021,08,07,13,52,6.40
2021,08,07,13,53,12.90
2021,08,07,13,54,4.80
2021,08,07,13,55,11.30
2021,08,07,13,56,8.10
2021,08,07,13,58,4.80
2021,08,07,13,59,8.10
2021,08,07,14,00,6.40
2021,08,07,14,01,8.10
2021,08,07,14,02,8.10
2021,08,07,14,03,4.80
2021,08,07,14,04,6.40
2021,08,07,14,05,4.80
2021,08,07,14,06,6.40
2021,08,07,14,07,20.90
2021,08,07,14,08,11.30
2021,08,07,14,09,1.60
2021,08,07,14,14,1.60
2021,08,07,14,15,4.80
2021,08,07,14,21,6.40
2021,08,07,14,22,6.40
2021,08,07,14,32,6.40
2021,08,07,14,33,6.40
2021,08,07,14,34,3.20
2021,08,07,14,35,4.80
2021,08,07,14,36,4.80
2021,08,07,14,37,19.30
2021,08,07,14,38,9.60
2021,08,07,14,39,12.90
2021,08,07,14,40,9.60
2021,08,07,14,41,16.10
2021,08,07,14,42,12.90
2021,08,07,14,43,16.10
2021,08,07,14,44,11.30
2021,08,07,14,45,9.60
2021,08,07,14,46,11.30
2021,08,07,14,47,9.60
2021,08,07,14,48,12.90
2021,08,07,14,49,9.60
2021,08,07,14,50,9.60
2021,08,07,14,51,19.30
2021,08,07,14,52,16.10
2021,08,07,14,53,6.40
2021,08,07,14,54,4.80
2021,08,07,14,55,4.80
2021,08,07,14,57,16.10
2021,08,07,14,58,8.10
2021,08,07,14,59,8.10
2021,08,07,15,00,8.10
2021,08,07,15,01,8.10
2021,08,07,15,02,11.30
2021,08,07,15,03,9.60
2021,08,07,15,04,6.40
2021,08,07,15,05,6.40
2021,08,07,15,06,16.10
2021,08,07,15,07,16.10
2021,08,07,15,08,20.90
2021,08,07,15,09,20.90
2021,08,07,15,10,6.40
2021,08,07,15,11,4.80
2021,08,07,15,12,3.20
2021,08,07,15,13,8.10
2021,08,07,15,14,4.80
2021,08,07,15,15,16.10
2021,08,07,15,16,11.30
2021,08,07,15,17,17.70
2021,08,07,15,18,11.30
2021,08,07,15,19,8.10
2021,08,07,15,20,11.30
2021,08,07,15,21,14.50
2021,08,07,15,22,6.40
2021,08,07,15,23,6.40
2021,08,07,15,24,4.80
2021,08,07,15,25,12.90
2021,08,07,15,26,6.40
2021,08,07,15,27,8.10
2021,08,07,15,28,8.10
2021,08,07,15,29,17.70
2021,08,07,15,30,8.10
2021,08,07,15,31,11.30
2021,08,07,15,32,17.70
2021,08,07,15,33,11.30
2021,08,07,15,34,12.90
2021,08,07,15,35,9.60
2021,08,07,15,36,14.50
2021,08,07,15,37,12.90
2021,08,07,15,38,9.60
2021,08,07,15,39,16.10
2021,08,07,15,40,9.60
2021,08,07,15,41,6.40
2021,08,07,15,42,11.30
2021,08,07,15,43,8.10
2021,08,07,15,44,17.70
2021,08,07,15,45,4.80
2021,08,07,15,46,19.30
2021,08,07,15,47,16.10
2021,08,07,15,48,16.10
2021,08,07,15,49,8.10
2021,08,07,15,50,14.50
2021,08,07,15,51,4.80
2021,08,07,15,52,17.70
2021,08,07,15,53,14.50
2021,08,07,15,54,6.40
2021,08,07,15,55,9.60
2021,08,07,15,56,12.90
2021,08,07,15,57,8.10
2021,08,07,15,58,14.50
2021,08,07,15,59,8.10
2021,08,07,16,00,8.10
2021,08,07,16,01,8.10
2021,08,07,16,02,6.40
2021,08,07,16,03,6.40
2021,08,07,16,04,9.60
2021,08,07,16,05,9.60
2021,08,07,16,06,8.10
2021,08,07,16,07,6.40
2021,08,07,16,08,12.90
2021,08,07,16,09,8.10
2021,08,07,16,10,6.40
2021,08,07,16,11,14.50
2021,08,07,16,12,11.30
2021,08,07,16,13,9.60
2021,08,07,16,14,29.00
2021,08,07,16,15,16.10
2021,08,07,16,16,12.90
2021,08,07,16,17,9.60
2021,08,07,16,18,8.10
2021,08,07,16,19,11.30
2021,08,07,16,20,16.10
2021,08,07,16,21,4.80
2021,08,07,16,22,12.90
2021,08,07,16,23,9.60
2021,08,07,16,24,11.30
2021,08,07,16,25,17.70
2021,08,07,16,26,9.60
2021,08,07,16,27,6.40
2021,08,07,16,28,22.50
2021,08,07,16,29,11.30
2021,08,07,16,30,12.90
2021,08,07,16,31,19.30
2021,08,07,16,32,9.60
2021,08,07,16,33,8.10
2021,08,07,16,34,12.90
2021,08,07,16,35,11.30
2021,08,07,16,36,4.80
2021,08,07,16,37,3.20
2021,08,07,16,38,8.10
2021,08,07,16,39,9.60
2021,08,07,16,40,9.60
2021,08,07,16,41,12.90
2021,08,07,16,42,9.60
2021,08,07,16,43,20.90
2021,08,07,16,44,17.70
2021,08,07,16,45,14.50
2021,08,07,16,46,24.20
2021,08,07,16,47,14.50
2021,08,07,16,48,33.80
2021,08,07,16,49,20.90
2021,08,07,16,50,25.70
2021,08,07,16,51,8.10
2021,08,07,16,52,12.90
2021,08,07,16,53,8.10
2021,08,07,16,54,6.40
2021,08,07,16,55,9.60
2021,08,07,16,56,9.60
2021,08,07,16,57,12.90
2021,08,07,16,58,12.90
2021,08,07,16,59,16.10
2021,08,07,17,00,20.90
2021,08,07,17,01,17.70
2021,08,07,17,02,17.70
2021,08,07,17,03,17.70
2021,08,07,17,04,16.10
2021,08,07,17,05,24.20
2021,08,07,17,06,24.20
2021,08,07,17,07,19.30
2021,08,07,17,08,14.50
2021,08,07,17,09,27.40
2021,08,07,17,10,19.30
2021,08,07,17,11,30.60
2021,08,07,17,12,37.00
2021,08,07,17,13,45.10
2021,08,07,17,14,20.90
2021,08,07,17,15,29.00
2021,08,07,17,16,37.00
2021,08,07,17,17,24.20
2021,08,07,17,18,12.90
2021,08,07,17,19,12.90
2021,08,07,17,20,22.50
2021,08,07,17,21,30.60
2021,08,07,17,22,19.30
2021,08,07,17,23,37.00
2021,08,07,17,24,17.70
2021,08,07,17,25,22.50
2021,08,07,17,26,20.90
2021,08,07,17,27,14.50
2021,08,07,17,28,20.90
2021,08,07,17,29,20.90
2021,08,07,17,30,29.00
2021,08,07,17,31,43.50
2021,08,07,17,32,22.50
2021,08,07,17,33,27.40
2021,08,07,17,34,38.60
2021,08,07,17,35,33.80
2021,08,07,17,36,20.90
2021,08,07,17,37,24.20
2021,08,07,17,38,41.80
2021,08,07,17,39,32.20
2021,08,07,17,40,24.20
2021,08,07,17,41,29.00
2021,08,07,17,42,22.50
2021,08,07,17,43,20.90
2021,08,07,17,44,32.20
2021,08,07,17,45,40.20
2021,08,07,17,46,33.80
2021,08,07,17,47,22.50
2021,08,07,17,48,17.70
2021,08,07,17,49,12.90
2021,08,07,17,50,20.90
2021,08,07,17,51,29.00
2021,08,07,17,52,29.00
2021,08,07,17,53,24.20
2021,08,07,17,54,24.20
2021,08,07,17,55,19.30
2021,08,07,17,56,20.90
2021,08,07,17,57,24.20
2021,08,07,17,58,25.70
2021,08,07,17,59,29.00
2021,08,07,18,00,27.40
2021,08,07,18,01,33.80
2021,08,07,18,02,27.40
2021,08,07,18,03,27.40
2021,08,07,18,04,20.90
2021,08,07,18,05,33.80
2021,08,07,18,06,40.20
2021,08,07,18,07,19.30
2021,08,07,18,08,16.10
2021,08,07,18,09,27.40
2021,08,07,18,10,27.40
2021,08,07,18,11,25.70
2021,08,07,18,12,12.90
2021,08,07,18,13,22.50
2021,08,07,18,14,32.20
2021,08,07,18,15,40.20
2021,08,07,18,16,14.50
2021,08,07,18,17,9.60
2021,08,07,18,18,32.20
2021,08,07,18,19,22.50
2021,08,07,18,20,27.40
2021,08,07,18,21,19.30
2021,08,07,18,22,11.30
2021,08,07,18,23,25.70
2021,08,07,18,24,27.40
2021,08,07,18,25,27.40
2021,08,07,18,26,16.10
2021,08,07,18,27,16.10
2021,08,07,18,28,22.50
2021,08,07,18,29,22.50
2021,08,07,18,30,37.00
2021,08,07,18,31,14.50
2021,08,07,18,32,29.00
2021,08,07,18,33,16.10
2021,08,07,18,34,43.50
2021,08,07,18,35,43.50
2021,08,07,18,36,27.40
2021,08,07,18,37,32.20
2021,08,07,18,38,38.60
2021,08,07,18,39,30.60
2021,08,07,18,40,38.60
2021,08,07,18,41,29.00
2021,08,07,18,42,35.40
2021,08,07,18,43,41.80
2021,08,07,18,44,24.20
2021,08,07,18,45,12.90
2021,08,07,18,46,33.80
2021,08,07,18,47,33.80
2021,08,07,18,48,38.60
2021,08,07,18,49,45.10
2021,08,07,18,50,48.30
2021,08,07,18,51,32.20
2021,08,07,18,52,35.40
2021,08,07,18,53,29.00
2021,08,07,18,54,40.20
2021,08,07,18,55,25.70
2021,08,07,18,56,33.80
2021,08,07,18,57,37.00
2021,08,07,18,58,38.60
2021,08,07,18,59,33.80
2021,08,07,19,00,24.20
2021,08,07,19,01,38.60
2021,08,07,19,02,32.20
2021,08,07,19,03,45.10
2021,08,07,19,04,25.70
2021,08,07,19,05,27.40
2021,08,07,19,06,24.20
2021,08,07,19,07,19.30
2021,08,07,19,08,16.10
2021,08,07,19,09,19.30
2021,08,07,19,10,25.70
2021,08,07,19,11,20.90
2021,08,07,19,12,14.50
2021,08,07,19,13,16.10
2021,08,07,19,14,24.20
2021,08,07,19,15,24.20
2021,08,07,19,16,32.20
2021,08,07,19,17,20.90
2021,08,07,19,18,20.90
2021,08,07,19,19,33.80
2021,08,07,19,20,30.60
2021,08,07,19,21,32.20
2021,08,07,19,22,22.50
2021,08,07,19,23,41.80
2021,08,07,19,24,20.90
2021,08,07,19,25,12.90
2021,08,07,19,26,43.50
2021,08,07,19,27,29.00
2021,08,07,19,28,43.50
2021,08,07,19,29,43.50
2021,08,07,19,30,33.80
2021,08,07,19,31,48.30
2021,08,07,19,32,27.40
2021,08,07,19,33,24.20
2021,08,07,19,34,30.60
2021,08,07,19,35,29.00
2021,08,07,19,36,30.60
2021,08,07,19,37,29.00
2021,08,07,19,38,27.40
2021,08,07,19,39,20.90
2021,08,07,19,40,14.50
2021,08,07,19,41,17.70
2021,08,07,19,42,35.40
2021,08,07,19,43,16.10
2021,08,07,19,44,22.50
2021,08,07,19,45,20.90
2021,08,07,19,46,12.90
2021,08,07,19,47,16.10
2021,08,07,19,48,46.70
2021,08,07,19,49,33.80
2021,08,07,19,50,14.50
2021,08,07,19,51,16.10
2021,08,07,19,52,29.00
2021,08,07,19,53,22.50
2021,08,07,19,54,12.90
2021,08,07,19,55,8.10
2021,08,07,19,56,12.90
2021,08,07,19,57,27.40
2021,08,07,19,58,11.30
2021,08,07,19,59,14.50
2021,08,07,20,00,11.30
2021,08,07,20,01,12.90
2021,08,07,20,02,9.60
2021,08,07,20,03,12.90
2021,08,07,20,04,4.80
2021,08,07,20,05,11.30
2021,08,07,20,06,16.10
2021,08,07,20,07,16.10
2021,08,07,20,08,11.30
2021,08,07,20,09,17.70
2021,08,07,20,10,24.20
2021,08,07,20,11,9.60
2021,08,07,20,12,12.90
2021,08,07,20,13,8.10
2021,08,07,20,14,9.60
2021,08,07,20,15,11.30
2021,08,07,20,16,4.80
2021,08,07,20,17,11.30
2021,08,07,20,18,12.90
2021,08,07,20,19,11.30
2021,08,07,20,20,12.90
2021,08,07,20,21,12.90
2021,08,07,20,22,16.10
2021,08,07,20,23,9.60
2021,08,07,20,24,6.40
2021,08,07,20,25,30.60
2021,08,07,20,26,16.10
2021,08,07,20,27,14.50
2021,08,07,20,28,9.60
2021,08,07,20,29,6.40
2021,08,07,20,30,17.70
2021,08,07,20,31,9.60
2021,08,07,20,32,6.40
2021,08,07,20,33,9.60
2021,08,07,20,34,4.80
2021,08,07,20,36,8.10
2021,08,07,20,37,9.60
2021,08,07,20,38,6.40
2021,08,07,20,39,9.60
2021,08,07,20,40,6.40
2021,08,07,20,41,1.60
2021,08,07,20,42,6.40
2021,08,07,20,43,11.30
2021,08,07,20,44,12.90
2021,08,07,20,45,6.40
2021,08,07,20,46,6.40
2021,08,07,20,47,6.40
2021,08,07,20,48,6.40
2021,08,07,20,49,16.10
2021,08,07,20,50,9.60
2021,08,07,20,51,3.20
2021,08,07,20,52,1.60
2021,08,07,20,53,4.80
2021,08,07,20,56,4.80
2021,08,07,20,57,1.60
2021,08,07,20,58,3.20
2021,08,07,21,00,4.80
2021,08,07,21,02,4.80
2021,08,07,21,03,4.80
2021,08,07,21,04,4.80
2021,08,07,21,05,3.20
2021,08,07,21,07,11.30
2021,08,07,21,08,6.40
2021,08,07,21,09,8.10
2021,08,07,21,10,9.60
2021,08,07,21,11,8.10
2021,08,07,21,12,8.10
2021,08,07,21,13,12.90
2021,08,07,21,14,16.10
2021,08,07,21,15,16.10
2021,08,07,21,16,9.60
2021,08,07,21,17,12.90
2021,08,07,21,18,8.10
2021,08,07,21,19,9.60
2021,08,07,21,20,4.80
2021,08,07,21,21,8.10
2021,08,07,21,22,6.40
2021,08,07,21,23,11.30
2021,08,07,21,24,16.10
2021,08,07,21,25,9.60
2021,08,07,21,26,20.90
2021,08,07,21,27,19.30
2021,08,07,21,28,12.90
2021,08,07,21,29,17.70
2021,08,07,21,30,11.30
2021,08,07,21,31,16.10
2021,08,07,21,32,11.30
2021,08,07,21,33,8.10
2021,08,07,21,34,22.50
2021,08,07,21,35,6.40
2021,08,07,21,36,14.50
2021,08,07,21,37,8.10
2021,08,07,21,38,11.30
2021,08,07,21,39,6.40
2021,08,07,21,40,3.20
2021,08,07,21,41,4.80
2021,08,07,21,42,11.30
2021,08,07,21,43,9.60
2021,08,07,21,44,8.10
2021,08,07,21,45,6.40
2021,08,07,21,46,8.10
2021,08,07,21,47,8.10
2021,08,07,21,48,8.10
2021,08,07,21,49,12.90
2021,08,07,21,50,8.10
2021,08,07,21,51,8.10
2021,08,07,21,52,11.30
2021,08,07,21,53,11.30
2021,08,07,21,54,4.80
2021,08,07,21,55,11.30
2021,08,07,21,56,11.30
2021,08,07,21,57,9.60
2021,08,07,21,58,11.30
2021,08,07,21,59,9.60
2021,08,07,22,00,14.50
2021,08,07,22,01,14.50
2021,08,07,22,02,6.40
2021,08,07,22,03,4.80
2021,08,07,22,04,9.60
2021,08,07,22,05,8.10
2021,08,07,22,06,9.60
2021,08,07,22,07,9.60
2021,08,07,22,08,11.30
2021,08,07,22,09,14.50
2021,08,07,22,10,4.80
2021,08,07,22,11,12.90
2021,08,07,22,12,12.90
2021,08,07,22,13,14.50
2021,08,07,22,14,6.40
2021,08,07,22,15,11.30
2021,08,07,22,16,8.10
2021,08,07,22,17,9.60
2021,08,07,22,18,8.10
2021,08,07,22,19,9.60
2021,08,07,22,20,12.90
2021,08,07,22,21,3.20
2021,08,07,22,22,4.80
2021,08,07,22,23,8.10
2021,08,07,22,24,6.40
2021,08,07,22,25,14.50
2021,08,07,22,26,4.80
2021,08,07,22,27,14.50
2021,08,07,22,28,22.50
2021,08,07,22,29,12.90
2021,08,07,22,30,1.60
2021,08,07,22,31,11.30
2021,08,07,22,32,9.60
2021,08,07,22,33,12.90
2021,08,07,22,34,9.60
2021,08,07,22,35,4.80
2021,08,07,22,36,8.10
2021,08,07,22,37,4.80
2021,08,07,22,38,4.80
2021,08,07,22,39,4.80
2021,08,07,22,40,8.10
2021,08,07,22,41,12.90
2021,08,07,22,42,9.60
2021,08,07,22,44,8.10
2021,08,07,22,45,12.90
2021,08,07,22,46,6.40
2021,08,07,22,47,6.40
2021,08,07,22,48,3.20
2021,08,07,22,49,9.60
2021,08,07,22,50,9.60
2021,08,07,22,51,8.10
2021,08,07,22,52,24.20
2021,08,07,22,53,6.40
2021,08,07,22,55,3.20
2021,08,07,22,56,6.40
2021,08,07,22,57,4.80
2021,08,07,23,00,6.40
2021,08,07,23,01,4.80
2021,08,07,23,02,9.60
2021,08,07,23,03,9.60
2021,08,07,23,04,9.60
2021,08,07,23,05,4.80
2021,08,07,23,06,9.60
2021,08,07,23,07,9.60
2021,08,07,23,08,9.60
2021,08,07,23,09,3.20
2021,08,07,23,10,1.60
2021,08,07,23,12,4.80
2021,08,07,23,14,4.80
2021,08,07,23,15,12.90
2021,08,07,23,16,8.10
2021,08,07,23,17,8.10
2021,08,07,23,19,6.40
2021,08,07,23,20,6.40
2021,08,07,23,21,8.10
2021,08,07,23,22,1.60
2021,08,07,23,23,4.80
2021,08,07,23,24,3.20
2021,08,07,23,25,4.80
2021,08,07,23,26,1.60
2021,08,07,23,28,4.80
2021,08,07,23,30,14.50
2021,08,07,23,31,6.40
2021,08,07,23,32,4.80
2021,08,07,23,33,8.10
2021,08,07,23,34,8.10
2021,08,07,23,35,6.40
2021,08,07,23,36,4.80
2021,08,07,23,37,8.10
2021,08,07,23,38,8.10
2021,08,07,23,39,6.40
2021,08,07,23,41,8.10
2021,08,07,23,42,3.20
2021,08,07,23,43,3.20
2021,08,07,23,44,6.40
2021,08,07,23,46,9.60
2021,08,07,23,47,8.10
2021,08,07,23,48,8.10
2021,08,07,23,49,4.80
2021,08,07,23,51,6.40
2021,08,07,23,54,8.10
2021,08,07,23,55,11.30
2021,08,07,23,56,8.10
2021,08,07,23,57,6.40
2021,08,07,23,58,6.40
